STARLINK-31692, 59577

Orbit data source: Space-Track

STARLINK-31692, 59577 is a payload satellite owned by SpaceX/Seattle (US) in LEO that was launched on Tue, 23 Apr 2024 UTC via an FALCON 9 launch vehicle from the Air Force Eastern Test Range (AFETR). Payload-class satellites include a variety of spacecraft equipped with specific instruments for various scientific and technological missions. These include communications satellites like Starlink; space stations such as the ISS; scientific satellites like the Hubble; Earth observation satellites from companies like Planet Labs, Umbra, and HawkEye 360; GPS; miniature CubeSats for education and research; and military/defense satellites.

Loading next visibility...
Identifier
59577, 2024-076P
Orbit
LEO
Last TLE update
19 hours ago
Origin
Manufacturer
SpaceX/Seattle
Mission
Operational spacecraft
Bus & Motor
STARLINK V2M, Unknown motor
Mass
730 kg wet, ~700 kg dry
Launch date (UTC)
2024-04-23 (1 year ago)
Launch vehicle
FALCON 9
Launch site
Air Force Eastern Test Range (AFETR)
Object type
Payload
Rocket body
Debris
Shape & HBR
Unknown
Radar Cross Section
Large (>1 m²)

Expand to show TLE details & history

TLE from 19 hours ago
0 STARLINK-31692
1 59577U 24076P   25128.47948123  .00001092  00000-0  49187-4 0  9993
2 59577  42.9987 292.7324 0001247 271.9150  88.1559 15.27574859 59825
Epoch: 2025-05-08T11:30Z
Definitive object data (Epoch: 2025-05-08T11:30:27.178Z)
Latitude
Longitude
-106.43022°
Altitude
482.812 km
Speed
7.626 km/s
True Right ascension
19h 30m 55s
True Declination
0° 00' 00"
Sunlit
Object was in partial shadow at TLE epoch
Visualization TLE readout
Latitude
14.59449°
Longitude
-94.7632°
Altitude
482.323 km
Speed
7.627 km/s
Apparent Right ascension
22h 49m 13s
Apparent Declination
-16° 29' 00"
Sunlit
Object is in daylight
Visualization observer readout
Local Sidereal Time
14:34:47
Azimuth
81.248° E
Elevation
-36.096°
Doppler factor
1
Orbital elements
Apogee altitude
485.866 km
Perigee altitude
484.154 km
Semi-major axis
6,863.147 km
Eccentricity
0.0001247
Inclination
42.9987°
RAAN
292.7324°
Arg. of periapsis
271.915°
True anomaly
88.17018°
Mean anomaly
88.1559°
Eccentric anomaly
88.16304°
Mean motion
3.81732 °/min
BSTAR
0.000049187
Orbital period
94.31 mins
Loading maneuver chart data...
Loading SW <> Apogee altitude chart data...
Loading historical data...
Loading historical data...
Loading historical data...
Loading historical data...
Loading historical data...
Loading historical data...
Loading historical data...

STARLINK-31692 Visibility forecast

Observer location: undefined°, undefined°

Span
Click to sort rows by Start time (UTC) header in descending order
Start Az.
Max El. time (UTC)
Max El. Az.
Max El.
End time (UTC)
End Az.
6 mins2025-05-09 14:24:57.965Z226.569° WSW2025-05-09 14:26:57.965Z185.762° SSW37.155°2025-05-09 14:30:57.965Z77.527° E
6 mins2025-05-09 16:03:57.965Z276.762° WNW2025-05-09 16:05:57.965Z318.138° NNW38.493°2025-05-09 16:09:57.965Z71.306° E
6 mins2025-05-09 17:42:57.965Z292.474° WNW2025-05-09 17:45:57.965Z36.461° NE39.908°2025-05-09 17:48:57.965Z89.471° E
5 mins2025-05-09 19:22:57.965Z266.296° W2025-05-09 19:24:57.965Z184.507° SSW35.989°2025-05-09 19:27:57.965Z132.353° SE
|